Other Surface Observations
Issued by NWS Jacksonville, FL

Home | Current Version | Previous Version | Text Only | Print | Product List | Glossary On
Versions: 1 2 3 4 5 6 7 8 9 10 11 12 13 14 15 16 17 18 19 20 21 22 23 24 25 26 27 28 29 30 31 32 33 34 35 36 37 38 39 40 41 42 43 44 45 46 47 48 49 50
451
SXUS52 KJAX 300112
OSOJAX
OTHER SURFACE OBSERVATIONS
NATIONAL WEATHER SERVICE JACKSONVILLE FL
900 PM EDT WED MAR 29 2017

FLZ020>025-030>033-035>038-040-300200-
...FLORIDA...

CITY           SKY/WX    TMP DP  RH WIND       PRES   REMARKS
CECIL FIELD    MOCLDY    77  63  61 VRB3      29.99R
HERLONG FIELD  NOT AVBL
FERNANDINA BCH NOT AVBL
LAKE CITY      FAIR      75  52  43 W6        30.00S
JUNIPER SPGS   NOT AVBL
BUNNELL        NOT AVBL
KEYSTONE HGTS  MOCLDY    77  54  44 NW7       30.00R
$$

GAZ132>136-149>154-162>166-300200-
...GEORGIA...

CITY           SKY/WX    TMP DP  RH WIND       PRES   REMARKS
JESUP          MOCLDY    73  63  68 S5        30.00R
HOMERVILLE     FAIR      75  63  64 CALM      29.99R
SWAINSBORO     FAIR      72  59  64 CALM      30.00R
CORDELE        NOT AVBL
EASTMAN        MOCLDY    78  50  37 CALM      30.01
$$

PLEASE NOTE:  THESE OBSERVATIONS ARE NOT QUALITY CONTROLLED AND MAY
NOT BE AVAILABLE AT ALL TIMES.
$$




USA.gov is the U.S. government's official web portal to all federal, state and local government web resources and services.